Theta_e
301 296 294 295 298 300 301 301 301 300 298 297 297 296 296 295 296 298 298 300 302 298 298 299 300 300 301 303 305 310 316 319 321 323 324 324 325 326 328 328 331 332 333 333 335 337 337 336 337 339 339 339 339 339 339 340 337 336 337 338 339 339 340 338 337 337 338 336 336 334 333 332 333 336 341 342 343 343 344 343 342 343 342 344 344 344
301 295 296 298 300 301 302 303 302 301 300 297 297 296 296 297 295 298 298 300 302 298 297 300 299 300 301 304 305 308 311 312 317 321 323 323 325 326 327 328 330 332 334 332 335 336 337 336 338 338 339 339 338 338 339 338 340 337 338 337 336 338 339 340 341 340 338 337 337 333 332 334 336 336 338 339 342 342 343 344 344 343 343 343 342 341
296 294 298 301 303 304 303 303 302 300 299 298 296 296 295 296 298 299 299 300 300 299 297 299 298 299 301 303 305 306 306 309 315 318 321 324 323 324 326 329 330 331 332 333 334 336 336 337 336 337 339 339 340 340 339 338 337 336 335 335 336 338 339 338 340 340 339 340 334 333 335 335 334 340 342 341 342 343 341 343 342 342 342 340 339 341
294 296 300 303 303 302 301 301 300 300 300 298 297 295 294 297 295 294 298 299 300 299 298 299 298 299 302 304 305 307 307 308 310 312 316 321 323 322 324 329 330 331 331 330 332 334 335 336 336 336 337 338 339 338 338 336 335 334 336 337 337 337 337 338 338 339 340 337 338 335 335 337 337 336 342 343 343 342 342 340 340 340 340 339 339 339
296 300 303 302 301 300 299 299 299 298 296 299 298 297 296 296 296 295 296 299 301 300 301 298 296 296 299 299 301 305 307 306 307 310 314 319 322 325 326 329 333 332 333 333 332 334 335 335 335 336 337 338 337 337 337 336 333 333 336 337 336 336 336 337 339 339 342 338 335 336 334 342 340 341 340 340 338 340 339 337 338 338 340 339 338 339
298 301 303 300 299 299 299 298 298 298 295 297 300 298 297 297 296 296 297 296 295 295 299 296 290 291 298 299 300 303 306 304 307 310 314 318 321 323 323 326 331 334 335 334 332 333 335 335 335 336 337 337 336 337 338 337 333 335 337 337 337 337 337 337 339 339 340 335 336 336 334 332 333 330 336 335 335 335 335 333 337 338 338 338 338 338
300 302 301 299 299 298 298 297 299 299 295 295 297 300 298 297 297 296 295 295 291 289 298 300 290 288 299 298 301 302 303 303 306 307 309 314 318 320 322 323 328 331 332 334 333 333 334 335 335 335 336 336 335 337 338 337 334 336 337 336 335 336 336 337 338 340 339 336 333 335 333 334 333 334 332 337 337 335 334 336 336 335 339 337 338 339
301 300 300 300 299 298 297 295 299 299 296 294 300 298 298 297 296 296 295 295 294 299 299 299 297 292 292 297 302 303 302 302 304 306 308 309 314 317 321 324 327 330 332 333 332 332 334 334 334 333 335 336 336 338 338 337 333 333 334 334 335 334 335 336 337 336 338 336 338 333 333 333 333 334 336 337 335 336 335 335 335 337 336 337 337 337
301 298 299 298 298 297 296 298 301 300 296 297 298 298 297 297 297 297 296 295 296 296 292 296 298 292 291 297 302 304 300 302 303 305 308 310 310 316 320 323 327 330 331 331 330 331 333 334 334 335 335 337 338 338 336 335 333 332 331 333 334 333 331 335 335 334 335 337 336 334 331 335 335 337 337 336 335 333 334 334 335 335 334 336 336 336
301 301 301 300 298 295 298 301 301 300 296 299 299 299 299 298 298 298 296 295 296 293 288 294 297 290 291 297 298 302 300 300 303 307 311 312 311 312 318 324 327 328 330 330 330 332 334 335 335 336 336 336 337 337 336 336 334 331 331 330 330 329 330 332 333 333 335 334 334 334 332 332 332 336 334 333 333 334 334 333 335 334 333 334 335 336
300 304 304 301 298 300 301 302 302 300 300 301 299 297 298 297 298 298 298 297 295 287 291 295 297 294 288 295 296 297 299 307 311 311 315 315 313 314 319 323 325 325 326 329 330 333 335 337 336 336 333 334 335 331 327 328 327 327 328 328 328 330 331 331 331 332 330 331 333 330 329 330 331 333 331 330 330 331 332 332 332 332 332 333 333 334
300 300 298 301 304 302 302 299 301 302 301 299 297 296 296 295 297 296 296 297 288 286 293 297 297 296 287 293 299 307 308 313 313 312 314 316 316 316 320 322 324 325 327 329 330 331 333 333 333 331 330 331 331 326 326 328 329 328 329 329 327 328 329 331 331 330 328 331 332 332 334 334 334 333 331 331 330 330 331 331 330 331 331 331 333 334
296 297 300 301 304 301 299 297 297 299 299 297 297 296 291 288 289 285 290 285 286 286 294 296 296 292 291 296 305 309 310 313 316 315 315 316 316 319 320 322 324 327 327 328 329 329 330 329 328 327 328 330 326 323 325 327 328 329 330 328 326 326 328 330 330 329 330 330 332 331 332 337 335 334 333 332 332 332 330 331 330 330 328 330 330 331
295 299 299 300 301 302 300 294 294 293 296 296 294 293 290 285 284 281 286 288 288 292 296 296 296 291 295 299 305 309 313 314 316 318 318 318 320 321 321 323 324 326 327 329 329 330 329 330 330 330 328 327 324 324 326 327 328 328 329 329 327 327 329 330 329 328 329 331 334 332 333 338 335 334 334 333 332 332 332 331 330 330 329 328 330 331
287 289 295 298 295 302 300 298 298 297 296 296 298 296 293 291 287 281 285 282 284 287 293 297 292 289 290 294 310 312 315 316 317 318 320 321 321 324 323 324 326 328 328 329 329 328 329 331 330 328 327 328 328 327 328 326 329 329 329 329 326 326 326 328 328 329 329 330 332 331 330 334 335 333 333 332 333 333 333 332 332 332 330 329 330 330
292 292 297 301 300 302 298 301 302 299 297 299 299 299 295 290 297 288 289 289 289 288 288 291 290 297 297 309 313 315 315 316 317 318 321 320 321 323 321 323 325 326 326 328 329 330 330 331 330 328 328 330 331 330 329 328 329 330 329 330 329 329 328 328 328 329 330 330 331 330 327 325 329 334 333 332 333 333 334 333 331 331 331 332 331 333
293 291 298 299 299 300 300 301 300 302 289 296 296 292 295 302 298 291 290 297 289 288 286 293 294 297 306 306 309 312 312 312 314 315 317 319 320 322 321 323 325 326 327 328 327 327 329 329 328 328 331 332 331 328 328 328 329 330 330 331 329 329 330 330 330 331 330 329 331 330 326 325 327 333 333 332 334 334 334 334 332 331 331 333 333 332
292 291 297 297 295 300 302 301 302 302 301 298 292 296 301 302 301 295 286 288 286 284 286 294 289 292 295 289 308 308 309 310 311 313 315 317 319 318 318 319 320 323 325 326 326 327 328 327 327 328 330 332 330 328 328 328 332 333 332 330 328 329 330 332 332 332 332 330 331 329 327 329 330 334 335 334 334 334 334 332 332 332 332 332 331 332
298 290 295 297 297 299 301 300 298 301 302 298 296 303 295 289 288 295 290 283 283 282 285 290 292 293 295 295 302 304 305 307 310 312 313 313 315 317 319 320 322 322 321 322 323 325 325 325 326 327 327 330 330 330 329 329 331 332 331 330 329 329 331 332 333 333 333 333 331 329 329 331 333 335 336 334 334 334 332 332 332 332 331 333 332 330
300 290 293 297 297 299 299 298 290 295 300 301 301 298 301 298 295 291 290 292 291 284 284 286 291 288 301 301 305 303 306 308 310 311 311 313 315 318 319 320 322 322 322 321 322 323 324 325 326 326 327 328 330 330 330 330 329 330 331 331 330 331 332 332 333 334 333 332 331 329 330 332 333 335 335 334 333 332 331 331 331 332 333 332 331 331
294 300 288 295 299 298 292 296 294 296 294 295 295 295 297 298 301 299 300 293 291 287 286 286 285 292 301 305 305 306 307 309 311 310 311 313 315 317 318 319 320 322 322 321 322 322 323 326 327 328 329 329 329 330 331 330 329 329 330 330 330 329 330 332 333 333 332 331 330 330 330 330 332 334 333 333 333 332 332 331 332 332 333 331 331 331
294 295 289 295 294 293 294 300 300 300 300 298 296 294 295 295 292 288 287 296 294 290 286 286 284 295 303 306 307 307 309 311 312 313 313 314 314 315 317 317 318 319 320 321 322 323 323 325 327 329 329 328 327 328 329 329 329 329 330 330 330 329 330 331 330 332 333 332 332 331 332 333 335 335 333 334 332 331 331 331 331 333 332 331 331 330
301 299 295 290 294 295 299 302 303 303 302 301 300 297 299 299 297 292 285 290 294 294 294 294 288 291 303 306 308 309 310 311 313 313 313 314 314 314 314 313 314 315 316 317 318 320 323 325 326 326 327 327 327 327 328 328 329 329 330 330 330 329 330 331 331 333 334 333 333 332 333 334 335 334 335 334 332 331 330 331 331 332 330 329 328 329
300 293 291 293 297 298 300 303 303 302 301 299 300 301 299 296 299 297 294 297 293 293 290 291 286 292 303 307 309 310 311 311 311 313 313 312 312 311 311 311 310 311 313 316 317 317 318 320 322 322 324 324 325 326 327 328 329 330 331 330 330 330 330 332 332 333 333 333 334 334 334 334 334 334 334 333 331 330 330 330 330 330 330 327 326 327
292 295 294 290 289 292 295 298 299 302 301 300 301 302 300 300 299 300 300 300 290 293 293 289 285 292 301 308 309 310 308 306 305 306 307 307 307 308 308 309 309 309 310 311 313 315 317 317 318 318 320 321 321 322 323 324 326 326 327 330 331 331 331 330 333 333 333 333 334 334 334 334 333 333 333 332 331 330 330 330 330 330 329 328 326 326
296 297 293 287 285 282 282 284 286 289 296 300 300 300 299 299 301 297 290 293 288 294 295 289 288 296 303 306 307 307 305 303 304 304 305 305 305 306 306 306 306 306 307 309 311 313 313 314 317 318 320 319 319 320 322 323 324 325 325 329 330 330 331 332 333 332 333 333 329 327 327 328 330 334 333 332 331 331 330 330 330 330 329 327 325 325
298 300 299 296 291 289 291 294 296 299 298 294 297 299 299 299 300 300 299 293 290 294 292 296 298 297 299 301 301 302 302 301 300 301 301 301 303 304 305 305 305 306 306 306 308 309 311 310 312 317 317 317 318 319 321 321 322 323 323 323 325 328 330 331 331 331 330 328 326 325 324 324 325 330 332 332 331 331 330 329 330 329 328 328 326 324
296 292 296 299 297 296 296 296 297 298 298 297 297 298 299 299 300 298 293 290 297 293 289 301 303 300 297 297 297 298 299 298 299 299 300 301 301 301 302 305 305 305 305 306 306 306 305 306 307 308 313 316 317 319 320 321 321 323 323 323 324 326 328 329 329 329 329 327 327 327 327 325 327 327 330 332 331 330 329 329 329 329 329 327 325 323
299 292 294 297 294 297 298 297 299 298 298 297 297 298 298 300 300 297 296 299 301 293 289 297 302 299 294 293 294 295 296 296 297 298 298 300 301 302 302 302 302 301 302 302 302 302 302 302 303 305 308 309 312 313 315 317 319 319 321 322 323 324 324 327 327 326 327 328 326 326 326 326 327 325 325 327 329 328 328 328 328 328 327 327 326 325
300 295 296 295 290 291 294 297 298 297 297 296 296 296 298 299 298 298 297 299 300 299 301 300 296 291 292 293 294 295 297 297 297 298 299 298 298 299 300 299 299 299 299 300 300 301 302 301 302 304 305 306 307 308 310 310 311 314 315 319 323 323 324 327 326 326 325 324 323 323 324 325 325 324 324 325 326 326 326 326 327 326 325 324 324 324
301 292 296 296 292 291 292 295 297 297 297 294 294 295 296 297 297 297 296 296 298 298 297 296 294 289 293 296 295 296 297 297 296 296 297 297 297 297 297 297 298 298 298 298 299 300 301 301 301 301 302 302 304 305 306 307 308 309 311 312 315 318 323 324 323 323 322 321 322 324 324 324 324 323 323 322 322 323 323 324 326 326 326 324 324 324
302 293 295 295 290 288 292 294 294 297 296 294 292 291 292 294 293 293 291 293 296 294 296 295 293 289 292 295 295 296 296 295 293 294 295 295 296 296 295 295 295 296 297 297 298 299 300 299 300 300 300 300 301 303 304 306 307 307 307 308 310 313 316 318 320 320 321 322 322 323 323 323 322 321 321 322 320 318 319 320 322 324 325 324 324 324
299 296 292 292 290 288 290 292 293 294 293 289 286 287 289 293 294 295 295 295 294 294 293 292 294 294 294 295 293 293 294 293 292 293 293 294 295 295 295 294 294 295 295 296 297 298 299 299 299 299 299 299 300 301 303 303 303 304 306 307 308 311 311 311 312 314 317 321 322 321 321 321 321 322 322 321 321 321 321 321 320 322 323 322 322 323
297 297 293 296 288 289 291 290 292 288 283 283 287 291 291 287 290 291 291 291 293 295 295 296 293 294 294 293 291 291 291 291 292 294 295 294 294 293 294 295 295 295 295 296 297 297 297 299 299 300 300 301 302 302 302 303 303 304 305 306 306 308 307 307 307 308 310 311 312 315 317 318 318 316 317 317 317 318 319 319 315 316 318 319 319 319
295 295 294 298 291 288 291 291 287 281 282 286 293 293 293 292 291 291 292 292 292 294 296 294 293 292 291 290 289 287 288 291 293 292 293 295 294 294 293 293 293 294 294 295 295 296 297 297 298 299 299 300 301 302 303 304 304 305 305 306 305 305 305 305 305 305 306 306 307 309 311 312 312 312 312 312 312 313 314 314 313 313 313 313 313 313
292 294 294 292 294 293 289 288 281 280 286 290 291 292 293 294 292 292 289 292 292 293 294 292 291 290 290 290 291 292 291 292 293 293 293 294 295 294 293 292 293 294 294 294 295 295 295 296 297 298 299 300 301 301 302 303 303 302 301 304 303 304 304 304 303 303 303 303 304 305 307 310 311 310 309 309 309 309 310 310 310 309 309 310 310 311
300 299 295 289 292 286 288 287 284 288 288 288 288 288 288 285 286 286 285 289 292 293 293 291 290 290 290 291 292 293 293 293 290 290 293 294 294 295 294 294 294 294 295 295 296 295 297 297 298 299 299 300 300 300 300 300 301 301 301 300 299 301 302 302 301 300 300 301 302 302 303 306 307 307 307 307 306 305 306 308 310 310 310 309 308 308
300 293 296 291 287 291 288 284 284 283 281 282 288 291 293 292 289 289 287 287 290 291 293 292 290 290 290 291 291 293 294 291 286 286 292 294 295 294 295 295 296 297 297 297 297 297 297 297 298 299 299 299 299 300 299 299 300 299 298 298 298 298 299 299 299 300 300 300 300 300 300 301 301 302 304 305 304 304 305 306 307 308 311 309 309 308
299 301 296 293 289 290 288 285 284 281 280 287 289 291 293 294 291 290 286 285 289 291 293 293 291 291 291 291 292 294 293 287 285 287 291 293 294 295 294 294 295 295 296 296 296 296 296 296 297 298 298 298 298 299 300 299 299 297 296 297 297 297 297 297 298 299 299 300 301 301 301 301 301 299 299 300 303 304 303 304 305 306 307 308 308 306
294 294 295 292 288 289 288 285 281 283 281 287 290 292 293 294 293 290 283 283 291 294 294 294 291 291 293 294 294 294 291 285 285 288 292 293 294 294 294 293 295 295 296 296 296 296 296 296 296 296 296 297 298 299 299 299 297 297 296 296 297 296 296 297 297 298 299 300 300 301 302 303 302 301 300 300 301 302 302 303 303 303 304 304 303 303
287 290 292 288 290 287 285 284 284 284 288 291 291 294 295 296 292 285 282 285 291 294 294 294 293 294 294 294 295 289 292 293 291 292 294 294 294 294 295 296 296 296 296 295 295 296 295 295 295 295 296 296 297 298 299 298 297 296 296 296 295 295 296 298 299 299 299 299 299 299 300 302 302 302 302 302 302 301 301 302 302 303 304 304 304 303
287 289 289 290 287 287 288 285 283 284 288 292 294 295 296 291 284 285 287 293 293 294 296 296 294 295 296 295 295 293 292 293 294 294 294 294 293 294 294 295 295 296 296 296 296 296 295 295 295 295 295 296 297 298 298 297 296 296 296 295 294 295 297 298 298 299 299 299 299 299 300 301 301 302 302 303 303 302 300 300 301 301 302 302 302 302
285 286 286 286 287 289 288 285 283 278 287 294 293 294 294 287 285 289 291 294 297 296 296 296 296 296 296 294 294 293 293 293 293 293 293 294 293 293 294 294 294 293 293 294 295 296 296 295 295 295 295 296 297 297 297 297 295 295 295 294 295 297 297 298 299 299 299 299 299 299 299 299 300 301 301 301 302 302 302 303 303 303 303 303 302 302
291 286 286 286 288 285 283 280 279 285 289 293 291 285 289 290 291 292 290 291 295 296 296 295 295 296 296 295 293 293 293 293 293 293 293 293 293 294 294 294 294 294 293 294 294 294 295 295 295 295 296 297 297 297 297 296 295 295 294 294 296 296 297 298 298 298 298 299 299 300 300 300 301 301 301 301 301 302 302 302 303 303 303 303 303 303
291 289 290 285 289 286 283 285 288 290 291 293 293 293 293 294 295 294 293 292 292 293 297 295 294 295 295 295 294 293 292 293 292 294 292 292 293 293 293 293 293 293 293 293 293 294 294 294 294 295 295 296 296 296 296 296 295 295 294 296 297 297 297 297 297 297 297 297 297 298 298 300 301 302 302 302 302 301 301 302 302 301 302 303 302 302
294 294 296 293 288 292 292 291 292 292 292 293 295 296 295 295 296 295 293 291 292 293 295 293 294 294 294 294 293 293 293 293 293 293 293 293 293 294 294 294 293 294 294 294 294 294 294 294 294 293 293 294 295 296 296 297 297 295 295 297 298 298 298 298 297 297 296 296 297 298 299 300 300 300 301 301 302 301 301 302 301 301 301 301 301 301
294 295 293 289 291 289 282 291 291 291 293 294 294 296 296 296 295 295 293 292 292 292 292 293 293 293 293 293 292 293 293 294 294 295 294 294 294 294 294 294 294 294 294 293 294 294 294 294 293 293 293 293 295 296 296 296 296 296 297 297 298 298 298 298 297 297 297 297 298 298 298 298 299 300 300 300 300 300 300 301 300 301 299 301 300 301
288 296 291 291 290 286 285 291 292 294 294 296 296 295 294 294 294 293 293 293 292 293 293 293 293 293 295 294 294 294 294 295 294 295 295 296 295 295 294 294 294 294 295 295 295 295 295 295 294 294 294 294 295 296 296 297 297 298 298 298 298 298 298 297 297 297 297 297 297 298 298 298 292 296 300 299 299 299 300 300 301 300 299 298 298 299
293 296 287 291 287 290 292 293 293 293 294 294 295 296 297 297 296 294 294 294 293 292 292 293 294 293 293 293 295 294 293 294 295 295 295 295 296 296 296 295 295 295 295 295 296 296 296 296 295 295 296 296 296 297 298 298 299 299 299 299 300 300 298 297 296 297 297 297 297 296 297 298 298 298 299 299 299 298 298 298 299 300 301 300 299 296
293 288 291 290 286 286 286 289 293 287 286 291 294 296 296 297 298 297 296 295 294 293 293 292 292 294 294 294 295 295 293 293 294 295 294 296 296 297 297 296 295 295 296 296 297 297 297 297 297 296 296 296 297 298 299 299 299 299 299 300 300 300 299 300 300 299 299 298 298 298 297 298 298 298 298 299 299 299 297 289 289 293 297 298 291 288
291 293 292 287 286 285 291 293 296 294 293 293 295 296 297 298 298 296 296 295 295 295 294 294 293 293 293 294 297 296 295 295 294 295 294 295 296 298 298 297 296 296 296 297 297 297 297 297 297 297 297 298 298 298 298 299 300 300 300 300 300 300 300 300 299 299 298 298 297 296 298 298 299 299 299 299 300 300 296 299 296 289 287 289 289 289
Wind_Speed
8 8 10 11 11 11 12 11 8 1 2 1 3 4 5 5 5 3 5 5 3 7 10 11 10 11 9 7 5 5 5 7 8 9 10 11 10 11 11 12 12 12 10 8 12 14 15 15 13 12 12 12 14 14 14 13 12 12 12 11 12 12 12 10 9 9 8 9 7 4 4 7 6 7 8 7 6 6 5 7 7 7 6 7 7 7
6 9 11 13 11 8 8 7 4 3 4 6 7 7 7 7 7 3 4 4 2 6 8 9 10 11 11 10 6 5 6 9 10 11 12 13 13 11 12 12 12 11 9 14 12 14 15 14 14 13 11 12 15 15 14 14 11 11 11 10 12 10 12 11 11 9 9 9 6 6 8 5 6 9 8 7 7 6 6 6 6 6 7 7 7 6
9 12 11 10 4 4 6 6 6 7 7 7 7 7 7 7 2 3 7 4 4 6 8 10 11 10 12 12 9 7 9 9 10 11 12 12 12 12 12 12 12 11 12 12 13 13 14 17 15 13 13 12 13 14 15 13 13 13 12 12 13 10 11 12 12 10 10 8 7 7 6 9 10 7 7 7 6 6 6 6 6 6 6 7 7 7
9 11 12 5 6 7 6 6 6 6 7 6 7 7 8 1 2 2 8 5 4 5 5 3 7 9 11 12 12 9 10 10 11 12 13 12 12 14 15 13 13 14 13 16 15 14 13 13 12 13 14 13 12 12 13 12 13 13 13 13 13 10 11 11 12 11 9 8 8 8 7 10 7 8 8 6 6 6 7 7 7 6 6 6 6 7
9 4 6 9 8 9 8 9 8 8 8 9 10 8 7 5 5 6 4 2 4 9 9 10 9 10 12 13 12 12 11 11 11 12 12 12 12 12 12 13 13 13 13 12 14 14 14 14 15 16 14 11 13 13 14 14 14 13 17 15 15 13 13 12 11 13 10 8 8 9 9 5 5 6 8 7 7 6 7 7 7 7 6 6 6 6
9 6 4 9 10 11 10 8 11 9 8 7 10 10 9 9 10 11 9 7 7 8 11 9 7 10 12 15 14 10 9 12 11 12 13 13 13 12 14 14 13 12 11 12 13 14 14 14 13 14 14 12 13 14 14 14 16 16 15 15 13 13 13 12 12 13 10 10 8 8 8 8 6 7 7 9 8 8 8 8 6 7 7 6 6 6
5 10 9 9 9 9 10 10 9 10 9 7 4 8 10 10 10 7 7 6 6 8 8 8 9 5 5 6 11 11 10 12 11 13 14 12 13 14 15 14 13 13 12 11 13 13 13 14 13 14 12 13 13 13 13 13 13 15 14 14 15 11 10 9 11 11 8 7 7 9 10 10 11 9 9 7 8 8 7 7 8 7 6 6 6 5
9 9 8 8 8 8 8 9 7 8 7 7 6 3 4 7 8 8 9 9 7 3 4 7 8 9 8 8 7 9 12 13 13 13 13 13 14 16 16 15 14 12 11 10 12 13 12 13 14 14 15 14 13 10 13 12 12 16 13 12 12 9 7 8 9 8 8 10 10 10 8 9 7 10 9 9 8 8 8 8 8 7 6 6 6 5
12 11 11 12 11 8 8 7 6 11 9 1 6 0 4 4 5 7 8 7 6 4 7 10 9 8 9 7 5 7 12 14 14 15 14 14 15 16 16 15 13 11 10 10 10 12 13 13 15 14 12 12 11 11 12 12 11 8 8 9 6 6 3 7 8 7 10 8 9 7 9 8 7 8 8 8 8 8 8 9 7 7 7 6 6 6
7 8 12 13 11 10 10 9 7 9 10 6 1 2 4 3 4 7 7 7 5 5 8 9 10 9 9 8 9 8 11 12 10 3 6 8 11 13 12 13 11 11 10 10 10 10 12 12 12 10 6 6 6 7 5 4 9 9 8 10 11 9 7 1 8 8 10 9 6 6 2 3 5 8 8 8 8 8 8 9 8 7 7 6 5 5
5 4 4 7 10 10 9 9 8 10 8 6 4 6 5 6 6 6 6 6 5 8 10 8 10 10 10 6 7 8 2 5 5 1 2 4 5 8 10 11 10 9 8 7 9 8 9 9 9 7 5 5 6 8 11 8 8 10 9 11 12 11 10 12 10 6 1 4 7 8 11 13 13 11 10 9 9 8 8 9 9 8 6 6 6 5
7 5 6 6 8 3 4 4 3 6 6 6 6 8 6 6 5 7 6 6 6 8 7 7 8 8 11 7 2 7 4 3 5 5 4 4 3 6 8 10 10 9 7 7 7 7 7 7 5 6 7 8 9 11 7 5 9 12 13 13 9 6 6 9 6 3 6 8 7 6 10 13 10 11 9 10 9 9 9 9 8 7 6 6 6 5
9 9 7 8 6 8 8 8 8 7 7 8 8 7 9 7 5 7 8 8 9 5 6 3 5 7 12 9 5 5 6 4 5 5 6 5 2 2 7 8 8 7 7 7 6 6 7 7 7 6 7 7 11 9 9 8 8 10 13 15 13 9 7 7 8 7 5 8 8 9 11 9 9 9 10 9 9 9 8 8 8 7 7 6 6 6
8 11 12 11 9 10 10 9 9 8 9 10 10 9 9 9 8 7 10 6 8 7 7 5 2 10 8 2 7 7 6 6 6 5 6 2 2 3 7 8 8 7 7 7 7 7 7 7 7 7 8 10 11 13 7 6 9 10 11 14 15 12 12 8 10 10 12 9 6 5 8 6 8 9 8 8 8 8 7 7 8 7 6 6 7 7
6 9 12 12 9 12 14 13 9 8 11 11 11 10 9 8 7 7 8 8 7 5 3 5 5 6 12 3 5 6 6 8 7 6 5 4 4 4 6 8 9 9 8 8 7 8 8 8 10 10 10 10 12 12 10 9 10 12 13 13 17 16 14 14 14 14 11 7 7 7 5 6 5 7 7 7 8 8 8 7 8 7 6 7 7 7
10 7 3 16 2 13 15 15 13 8 3 8 8 8 9 8 6 9 2 6 4 3 5 6 5 3 2 4 7 6 6 7 7 7 8 8 7 6 7 7 8 9 8 7 6 8 10 10 11 11 10 9 9 11 10 9 10 12 14 16 16 15 16 15 14 13 11 7 7 7 6 2 9 6 7 6 7 8 8 8 8 7 7 7 7 7
5 7 7 9 4 9 13 15 14 10 8 7 7 9 9 4 6 2 2 4 2 3 7 3 6 7 9 4 6 5 5 6 7 8 8 8 8 9 9 8 6 5 7 7 8 7 9 9 10 10 10 8 10 10 8 8 9 12 14 15 16 14 13 15 15 14 12 11 9 10 10 8 7 9 9 7 8 9 8 8 7 8 7 7 6 6
5 3 6 8 13 9 1 1 7 12 8 4 9 8 3 2 6 5 5 3 5 7 3 4 7 8 9 3 2 2 6 7 6 6 8 8 8 8 7 6 6 5 4 8 9 8 9 11 12 11 10 10 12 11 10 10 10 11 10 12 15 14 15 14 15 14 13 12 9 9 9 8 10 9 9 8 9 8 8 8 7 7 7 7 7 6
6 6 7 7 3 8 5 6 7 8 9 10 3 4 8 5 7 8 4 7 6 6 5 8 7 8 8 3 4 1 4 5 6 6 6 7 8 7 5 6 7 10 10 9 9 8 10 9 10 9 10 12 14 13 12 11 11 10 9 11 12 13 13 14 13 14 13 11 8 8 10 10 9 8 7 8 9 8 8 9 8 8 8 7 7 7
4 5 5 3 7 7 8 9 9 10 11 10 6 8 5 4 7 5 6 6 6 6 5 4 5 3 6 6 2 4 4 3 5 5 7 8 7 7 5 4 6 8 8 7 8 8 9 8 8 9 9 9 12 13 12 13 10 10 9 10 10 11 12 13 14 12 13 11 8 8 8 9 8 7 8 8 8 9 9 9 9 8 8 8 7 8
3 4 4 7 6 7 9 9 10 10 9 9 9 9 5 6 3 6 1 7 5 5 5 4 5 5 3 4 2 3 3 4 5 5 5 6 7 8 8 7 6 5 5 5 5 6 9 9 8 9 9 8 8 10 10 10 11 10 8 9 9 12 13 13 13 12 10 10 9 10 11 10 9 9 9 9 10 10 9 8 9 8 7 8 7 8
4 4 7 5 9 9 5 4 5 4 3 7 9 10 9 8 9 9 8 6 7 6 5 3 5 6 5 2 2 1 2 2 2 3 4 4 6 6 7 9 10 8 8 7 6 5 5 6 7 7 7 8 8 9 9 8 9 11 10 9 9 11 11 13 14 13 12 10 10 11 10 11 10 10 9 10 10 10 9 9 8 8 8 8 8 8
5 4 7 7 7 6 4 7 6 3 2 3 6 7 7 8 8 8 9 5 6 7 5 6 4 3 1 1 1 2 2 3 2 3 4 4 6 9 11 12 12 12 11 10 10 9 6 3 1 4 6 7 7 7 7 9 10 11 10 9 9 11 12 13 14 13 12 12 11 12 11 11 10 10 10 10 9 10 9 9 8 8 8 8 8 8
3 4 7 9 8 3 5 5 3 1 2 6 6 3 5 9 6 9 5 4 5 3 5 4 5 3 2 1 2 3 6 6 6 5 3 9 11 10 10 11 11 12 10 10 9 8 7 7 7 6 5 6 6 5 4 5 9 9 8 7 8 11 13 12 13 12 12 11 12 12 11 10 10 10 10 10 9 10 10 9 8 7 8 8 8 8
6 6 7 7 7 8 7 7 7 4 5 2 1 2 4 4 5 4 6 4 5 7 7 6 5 4 2 2 5 7 8 9 9 10 10 9 8 8 9 9 10 10 11 11 10 9 9 10 6 1 5 6 6 6 4 2 4 6 6 6 7 8 10 11 11 11 10 10 10 9 7 7 8 10 10 10 9 10 10 9 8 7 8 8 8 7
5 1 7 9 10 10 10 11 10 9 7 4 3 2 4 3 2 5 7 7 8 6 8 7 2 4 6 4 6 9 7 9 9 9 9 9 8 7 8 9 9 9 10 10 10 9 10 9 7 5 2 6 7 5 3 1 2 1 2 4 5 8 9 10 9 9 10 8 11 11 11 8 1 6 9 9 10 10 10 9 9 8 7 8 8 7
1 1 1 3 4 4 3 6 5 2 6 5 4 4 5 3 2 5 4 5 6 4 7 6 6 10 8 6 7 8 7 8 7 7 8 8 8 7 8 8 8 8 9 9 9 8 10 12 11 7 6 8 7 6 4 3 2 2 4 3 2 4 8 9 9 10 10 11 12 10 9 10 7 5 7 8 9 9 10 9 9 9 8 7 8 8
2 2 4 4 5 5 3 4 5 4 5 5 3 5 5 6 2 3 3 2 6 2 8 7 13 13 9 8 7 7 6 7 7 7 7 7 7 7 7 8 10 11 10 10 11 12 11 10 10 11 10 9 8 6 6 5 6 4 6 4 4 3 4 6 9 9 11 12 11 9 8 6 5 5 3 6 8 9 9 9 8 7 6 6 7 7
6 3 1 1 7 8 5 4 4 7 8 7 8 7 8 7 6 3 4 4 7 1 1 3 9 12 8 7 6 7 6 6 6 7 7 6 6 7 7 9 11 11 11 11 12 11 11 10 8 9 10 10 10 9 8 7 7 6 4 6 4 6 1 4 8 10 10 10 10 10 10 10 8 6 5 2 7 8 8 8 7 7 7 6 5 3
4 1 4 6 5 6 8 5 2 6 8 9 10 9 7 7 8 7 6 7 7 6 6 9 14 12 7 6 5 6 6 5 6 5 6 8 8 8 8 10 10 10 10 10 10 10 10 10 9 9 9 10 10 10 9 9 8 9 8 6 6 7 7 3 4 7 9 11 11 10 10 10 9 8 7 6 7 7 8 8 8 8 7 7 6 4
6 2 9 9 6 4 3 3 0 5 8 12 10 9 7 3 6 7 5 6 3 7 8 9 11 8 5 5 6 6 6 6 7 8 8 8 8 8 9 10 10 10 10 10 10 11 11 11 11 10 10 10 10 10 9 9 9 10 10 9 9 8 5 9 10 10 9 11 12 11 12 12 12 12 11 10 8 8 9 9 7 7 8 7 6 5
8 3 4 4 5 4 3 4 4 6 10 13 11 12 11 7 4 5 4 5 4 4 5 6 5 3 4 5 6 6 7 8 9 7 7 8 8 8 9 9 9 10 10 10 10 10 10 11 11 12 11 11 11 11 10 10 11 11 10 9 9 6 7 11 10 9 10 13 12 12 12 11 10 9 8 9 9 8 7 7 7 7 7 6 6 5
3 5 5 6 6 5 4 2 4 4 2 3 8 9 10 8 7 2 4 7 6 4 4 2 4 6 7 6 7 7 8 9 9 7 7 8 9 9 9 9 10 10 10 10 10 10 10 10 11 11 10 10 10 11 11 10 11 11 10 10 7 7 11 11 10 10 10 10 11 11 10 11 12 10 8 7 6 6 6 7 7 5 5 5 4 5
5 6 5 7 5 6 9 5 3 2 7 2 3 6 6 5 9 6 4 5 7 6 4 6 5 8 8 6 7 7 8 8 8 9 9 7 7 9 10 10 10 10 10 11 10 10 9 9 9 10 11 11 11 11 11 10 10 8 8 8 8 9 10 10 11 11 10 10 10 9 9 9 9 10 8 7 7 7 6 7 7 5 5 5 4 5
4 7 4 3 1 5 7 8 5 5 2 3 1 9 6 4 7 6 5 5 5 5 4 8 9 7 8 8 9 8 8 11 12 12 11 10 9 9 10 10 10 11 12 11 12 11 10 11 11 10 9 9 10 9 9 10 9 9 10 8 9 10 11 10 12 12 11 11 9 9 9 10 10 10 9 8 8 8 8 7 7 6 5 5 6 5
2 3 2 0 2 4 5 7 4 3 3 4 3 6 7 2 7 4 2 6 6 5 4 6 7 9 10 11 11 10 10 12 13 13 12 11 10 9 10 10 10 11 12 11 11 11 11 10 11 11 10 8 9 10 11 10 9 11 11 9 11 10 11 12 14 12 11 11 11 10 9 10 11 10 9 9 9 9 8 8 7 7 6 6 6 5
7 3 2 2 2 2 1 5 7 9 8 7 3 6 7 4 6 5 2 3 5 4 1 7 9 9 10 10 11 10 10 9 12 11 12 11 11 10 11 12 11 11 11 10 10 9 8 9 11 10 10 10 10 11 11 10 11 12 14 14 12 13 13 13 14 12 12 11 11 11 11 10 10 10 10 10 10 9 8 7 7 7 7 8 8 7
3 4 2 3 1 2 4 7 5 5 3 5 5 6 5 3 3 3 3 0 3 4 1 6 9 10 10 10 10 9 6 5 8 7 8 9 10 11 11 11 11 11 11 10 9 8 9 9 9 10 10 12 13 12 9 10 11 12 13 13 12 12 13 13 13 11 11 11 10 10 10 10 10 10 9 9 9 9 8 8 7 7 5 7 7 7
2 3 2 3 3 2 2 3 2 3 4 4 9 10 8 4 3 3 3 2 3 2 3 6 8 9 10 10 9 4 3 3 5 4 5 8 10 10 11 10 9 9 9 9 9 9 9 9 10 10 11 12 14 12 11 11 11 12 13 12 12 12 13 13 12 11 11 10 10 11 10 10 10 9 9 9 9 8 8 7 6 5 5 6 6 6
7 2 1 3 3 2 2 3 5 5 4 8 10 10 7 2 5 3 3 3 5 2 3 6 8 9 9 8 2 3 1 6 9 7 7 7 9 9 10 10 9 8 9 8 9 8 8 8 9 11 11 12 11 11 10 10 11 13 12 11 11 13 13 12 11 10 10 9 9 9 9 9 10 9 8 8 8 8 7 6 5 5 5 5 5 5
5 3 4 4 4 6 8 7 6 4 3 10 12 10 6 3 3 3 2 4 6 5 4 5 8 8 7 4 4 2 5 6 11 12 9 9 10 9 9 9 9 8 9 8 8 8 8 9 9 10 10 9 9 8 9 9 11 12 11 11 12 13 11 10 9 10 10 10 10 10 10 9 9 9 8 7 7 7 6 5 5 5 5 5 4 5
3 2 4 5 6 4 3 6 7 6 2 11 12 6 5 3 1 3 4 6 7 3 3 6 8 8 5 3 4 7 10 13 13 11 10 9 9 9 9 9 9 9 7 7 7 7 8 8 10 11 11 10 9 8 8 9 12 11 11 12 13 10 8 9 9 8 9 10 10 10 10 9 9 8 7 7 6 6 6 5 5 5 5 5 5 5
4 2 4 5 1 1 2 6 3 3 5 15 16 2 10 2 5 4 6 5 3 2 3 5 7 5 2 6 9 13 14 13 12 11 11 9 9 9 9 9 7 8 8 8 8 7 5 7 8 9 9 8 9 8 8 10 12 11 11 12 10 8 8 8 8 8 8 9 9 8 8 8 9 7 6 6 6 6 5 4 4 4 4 4 4 4
7 1 4 4 6 3 5 5 4 3 6 10 10 5 6 3 5 5 4 4 6 4 5 6 5 4 6 11 12 12 12 13 12 11 10 9 9 9 7 6 6 7 7 7 7 6 6 8 8 8 8 7 8 8 8 8 10 11 11 11 7 7 8 8 8 8 8 8 8 8 7 7 7 6 5 5 4 4 5 4 3 3 3 3 2 2
10 9 5 5 5 4 5 5 3 2 5 6 7 5 5 4 4 4 5 6 6 7 5 7 8 8 9 11 11 12 11 11 12 11 10 9 9 8 7 6 7 7 7 7 7 8 8 8 9 9 10 9 9 8 8 8 9 10 10 7 6 6 6 6 7 7 7 7 7 7 7 7 7 7 6 5 5 5 4 5 4 3 3 2 3 2
5 6 5 11 13 15 13 9 6 6 6 8 7 7 8 8 7 6 7 7 7 8 7 8 9 10 9 9 11 10 11 11 10 9 9 9 9 8 6 7 8 8 8 8 9 8 9 9 10 10 11 11 10 9 8 8 8 10 8 6 6 6 6 6 7 7 7 7 7 8 7 6 6 7 7 6 5 5 5 5 5 4 4 3 3 3
8 4 5 6 4 1 6 7 10 9 8 8 9 10 10 10 9 9 9 9 8 9 10 11 11 11 11 9 9 10 10 9 10 9 8 7 8 8 7 8 8 8 8 9 8 7 8 8 9 9 10 9 8 8 7 8 8 7 6 6 6 7 7 7 7 7 7 7 7 8 8 8 7 5 6 6 5 5 5 5 4 4 4 4 4 3
7 3 9 9 10 7 8 9 11 11 10 10 10 10 11 11 11 11 9 10 11 11 11 11 11 11 7 7 6 8 9 9 9 9 9 9 8 8 7 8 8 8 7 7 7 8 8 8 8 8 8 8 7 6 6 6 6 6 6 6 6 6 7 8 8 7 7 8 7 6 6 6 5 6 6 6 7 6 5 5 5 5 5 5 5 5
3 5 5 7 9 10 11 10 11 12 12 12 12 12 11 11 10 11 11 12 12 13 13 12 11 10 8 8 7 5 6 6 6 7 8 8 8 8 8 7 7 7 6 6 6 6 6 7 7 7 7 7 6 6 6 6 5 5 5 4 5 5 6 6 5 5 6 5 5 5 5 5 6 5 5 5 5 7 7 7 6 5 5 7 6 6
4 9 4 5 6 6 5 6 3 3 6 8 11 11 12 12 12 12 12 13 13 12 11 12 10 9 8 6 6 6 5 5 6 5 7 6 7 7 7 7 6 6 6 5 5 6 6 6 7 7 7 6 5 6 6 7 6 6 5 5 5 5 5 4 4 5 5 4 4 3 3 4 4 4 4 3 3 4 5 5 5 6 6 4 7 6
7 7 4 4 4 6 7 7 8 11 10 9 9 9 10 10 11 12 12 12 11 10 11 12 11 8 7 5 4 5 5 4 4 5 4 4 5 5 6 6 6 6 6 6 7 7 6 6 6 6 6 6 6 6 6 6 6 6 6 7 7 7 6 5 4 4 4 5 6 5 3 3 3 3 3 3 2 2 3 5 5 4 3 6 4 4
Wind_Direction
174 205 196 210 215 207 209 219 239 7 278 331 246 249 246 251 251 194 252 267 285 283 255 252 249 253 253 240 185 198 199 212 216 207 209 211 211 206 205 213 216 209 183 189 196 199 197 196 197 195 194 190 190 188 183 179 167 169 174 170 184 188 181 174 171 181 175 174 169 181 198 203 173 221 172 181 182 183 183 178 168 171 182 177 181 184
211 223 217 220 230 224 194 194 223 247 243 250 254 253 248 234 253 177 245 260 231 268 261 251 255 253 251 248 217 187 217 225 217 216 214 213 210 213 211 213 220 210 185 186 194 195 196 202 195 196 198 193 193 190 186 175 165 160 165 174 186 184 188 178 177 179 179 172 170 173 176 199 210 181 181 176 172 192 170 177 168 179 181 182 180 178
206 222 224 220 186 169 178 194 202 223 224 234 249 249 257 252 293 258 253 237 256 236 258 256 253 250 246 244 235 203 231 238 231 229 223 215 211 213 217 213 216 209 204 187 193 180 199 204 202 200 203 202 199 188 186 175 165 159 173 186 182 187 191 187 183 184 176 161 154 205 169 207 185 182 175 171 173 171 166 168 170 175 178 177 175 172
213 225 228 171 162 159 173 187 197 214 234 235 229 236 243 358 265 202 166 190 188 246 287 308 284 264 259 253 251 237 233 238 239 234 229 217 217 214 214 208 207 206 206 201 192 187 195 201 200 204 207 203 197 186 182 173 153 172 186 187 183 181 196 186 182 185 168 166 172 180 225 197 178 189 163 159 153 162 163 167 171 170 173 172 174 172
216 42 159 166 176 200 193 192 207 222 231 223 245 256 258 235 224 256 296 254 276 254 250 267 262 257 243 239 234 227 222 235 236 238 233 224 221 221 223 218 213 211 201 205 203 194 190 194 205 205 206 199 199 187 179 167 163 179 186 187 185 183 190 190 182 182 165 172 178 187 191 193 163 142 155 156 158 167 166 162 172 164 170 173 175 175
235 122 171 191 188 199 210 202 214 230 243 236 221 246 267 273 269 260 252 266 252 243 198 221 246 246 229 225 232 219 184 219 224 228 226 221 217 214 221 222 212 211 209 199 207 204 196 197 202 205 202 200 203 193 180 167 171 178 177 180 188 187 188 191 184 179 171 174 180 173 174 177 167 171 170 169 166 167 169 169 164 162 168 177 172 174
248 134 178 194 193 209 219 229 213 216 247 249 226 194 238 247 254 257 244 222 235 251 136 205 246 254 178 223 213 217 217 220 208 217 225 222 218 214 217 219 212 208 204 203 203 202 197 196 197 205 203 203 204 201 185 165 171 176 168 171 186 187 185 188 183 176 168 164 190 187 188 175 178 169 177 171 163 167 162 161 164 160 169 176 170 175
218 175 184 183 195 208 209 222 197 208 236 240 95 224 246 245 231 228 227 223 254 15 131 213 231 267 254 222 209 197 222 225 219 217 222 224 218 217 215 215 212 206 202 197 205 202 200 204 205 205 205 207 206 193 190 165 169 176 154 169 167 174 175 191 186 168 180 187 181 191 206 176 202 169 170 156 161 163 158 159 164 159 167 175 170 171
187 187 201 210 219 223 223 222 173 202 228 318 104 161 243 243 230 220 220 220 240 265 229 194 208 248 250 239 205 204 227 228 232 231 225 226 227 221 218 211 206 203 192 199 204 209 205 201 206 209 201 205 201 188 187 169 154 150 137 144 168 110 198 197 198 173 202 188 187 197 184 198 186 161 148 155 154 156 156 158 159 165 162 166 168 168
201 208 207 216 215 223 231 233 214 202 224 209 132 255 267 255 231 221 215 221 194 227 240 224 197 244 253 233 204 207 244 243 243 275 291 263 239 228 220 214 202 198 200 199 206 210 214 209 206 201 203 191 174 168 166 136 124 133 139 137 124 152 187 13 205 213 200 200 169 217 148 154 235 156 154 153 145 148 154 156 160 161 162 159 159 160
80 60 345 231 210 228 230 224 213 207 230 48 193 220 194 198 193 197 234 235 220 233 238 232 181 235 262 251 233 215 252 9 9 273 345 322 259 232 214 209 200 205 200 204 202 205 207 200 200 181 159 160 132 93 77 74 81 83 86 111 157 174 173 183 212 219 186 217 215 187 183 200 189 151 148 145 147 146 160 157 161 164 160 160 156 160
189 155 204 202 237 247 291 174 202 232 217 223 225 223 190 186 181 205 203 222 233 239 236 187 217 218 257 236 220 65 80 15 357 337 315 332 301 213 200 198 189 184 190 195 206 186 181 178 156 127 150 155 120 97 98 124 137 132 146 138 140 204 190 177 159 195 209 220 201 234 210 185 158 152 151 150 153 154 161 158 160 161 158 161 156 166
214 215 216 211 180 234 193 219 160 200 197 222 228 230 222 198 190 210 205 207 218 240 112 128 182 219 239 263 39 43 23 13 0 339 324 293 269 196 177 178 168 166 177 181 184 170 157 155 136 154 149 134 100 103 158 179 137 127 126 131 146 183 183 168 152 119 172 188 208 201 207 181 159 157 156 156 154 161 163 161 165 163 165 162 164 168
213 211 208 216 204 205 229 215 170 198 200 213 220 214 221 217 199 223 219 224 238 196 125 224 221 259 269 174 38 6 12 6 3 350 14 322 169 154 148 153 155 157 157 165 157 156 166 171 166 157 145 125 124 145 186 124 129 132 133 135 149 179 170 176 161 184 183 185 165 164 236 172 173 167 163 163 160 162 168 166 162 168 164 164 165 165
220 190 205 202 211 186 213 227 207 207 185 209 220 225 229 242 231 224 235 235 233 255 123 147 214 240 238 77 52 49 16 14 16 12 48 103 137 131 117 125 128 132 142 156 170 179 189 176 150 142 147 150 146 157 153 186 142 135 137 134 154 176 183 164 171 181 189 166 116 98 359 321 209 173 174 171 160 168 169 167 160 169 161 163 163 168
231 253 98 188 235 172 204 210 239 260 239 200 218 240 243 240 246 256 357 311 314 257 201 171 247 273 9 109 72 57 39 41 33 41 38 57 76 99 127 133 142 142 150 170 175 170 160 155 151 153 164 171 162 156 157 174 157 151 156 159 161 172 171 174 176 182 179 154 125 117 115 110 287 203 189 171 164 172 169 163 162 161 164 160 159 156
180 234 146 165 169 202 203 197 209 224 229 159 210 218 229 277 252 240 160 91 163 252 260 212 229 225 128 138 91 52 43 34 46 53 65 66 65 70 60 59 68 122 149 169 171 157 153 155 155 167 176 169 138 135 158 160 165 175 176 172 164 170 171 175 179 182 172 166 159 156 151 148 233 221 190 174 171 168 166 160 161 159 163 151 154 147
258 187 137 175 195 204 223 213 226 209 252 162 219 216 121 232 290 251 251 171 234 245 230 207 244 245 208 206 211 75 44 32 41 58 69 72 72 76 80 96 103 91 92 102 115 134 134 149 155 170 180 154 138 144 145 152 165 178 179 167 164 170 171 173 175 177 174 171 178 150 150 166 205 205 181 176 170 169 167 162 162 160 159 159 150 152
240 244 175 189 170 145 167 206 214 221 227 240 292 8 218 180 215 205 250 237 243 236 252 231 236 249 252 125 168 115 43 45 46 49 58 65 69 77 98 123 127 127 122 121 130 125 130 154 175 171 179 146 140 140 144 152 167 174 172 166 164 165 168 170 173 172 173 172 169 166 167 174 196 190 178 173 167 171 173 168 165 164 164 157 154 154
205 249 154 133 199 149 184 201 213 189 195 235 266 250 232 278 240 211 211 256 254 258 236 240 198 250 18 99 132 104 78 59 65 62 55 57 58 62 65 103 137 154 143 136 137 137 136 163 184 178 170 148 139 139 148 157 165 169 171 169 166 167 167 169 173 169 171 172 161 161 165 173 183 180 174 164 165 174 178 173 168 165 166 165 163 160
211 212 262 143 143 168 201 195 221 202 192 194 218 231 190 235 2 308 217 237 243 252 246 255 243 96 40 36 71 91 83 87 69 85 68 54 50 46 46 47 49 65 107 115 114 128 146 166 183 176 162 150 142 141 151 156 164 165 167 173 170 168 170 170 171 172 167 164 166 167 167 171 177 175 176 168 171 178 179 174 171 167 165 163 168 163
225 190 232 176 185 206 185 62 20 332 300 237 218 223 221 216 209 212 233 197 252 254 261 238 248 106 81 302 60 38 72 142 174 97 90 62 37 36 50 52 50 62 67 67 80 114 148 172 185 171 163 153 143 145 150 156 164 168 171 174 167 170 171 171 175 177 169 169 166 171 171 171 171 167 173 169 173 180 173 173 171 160 161 168 161 170
240 223 224 236 220 223 94 100 71 23 281 296 254 255 245 240 235 233 243 203 213 242 262 276 295 127 79 41 92 115 199 93 57 41 68 67 64 55 46 43 45 45 47 48 44 39 28 27 234 178 159 139 132 140 156 162 171 171 172 169 172 171 175 172 175 173 172 173 169 170 169 169 168 168 167 166 174 177 171 168 164 161 163 162 160 167
101 220 218 237 230 185 163 153 151 168 227 210 201 281 254 240 256 260 271 320 254 180 228 224 238 98 119 193 111 101 90 53 37 9 59 61 46 46 50 49 46 45 41 50 48 38 36 42 41 27 42 91 115 116 140 176 180 175 170 172 171 178 170 173 174 173 173 172 168 167 165 167 163 161 162 168 176 173 166 164 163 163 163 156 162 163
199 208 249 211 210 205 194 190 195 162 228 240 128 48 342 296 272 278 292 242 263 245 254 264 252 102 116 148 102 85 68 60 41 43 45 58 51 47 48 46 48 47 48 44 47 52 48 38 33 126 163 151 143 112 104 298 232 167 206 177 168 173 160 167 172 175 173 166 160 152 151 149 158 159 166 168 171 167 163 160 163 164 160 154 159 154
229 157 201 222 210 205 200 206 207 201 195 117 97 70 38 4 338 225 223 226 245 217 208 222 198 142 121 134 104 89 77 66 52 49 59 53 51 49 46 46 42 46 47 48 41 47 50 44 35 29 70 108 71 72 109 189 276 344 241 174 163 162 168 171 170 172 165 130 95 79 76 68 11 170 164 164 165 161 162 160 163 160 159 157 151 153
154 114 313 352 300 288 351 1 30 356 157 194 103 55 41 30 342 275 310 249 243 187 226 238 126 140 143 110 70 63 62 70 50 42 43 43 43 49 52 53 54 52 48 45 49 42 54 43 25 12 43 52 55 58 65 71 43 61 80 61 251 181 168 168 172 171 150 131 140 142 142 153 158 203 164 163 158 155 161 161 158 162 155 153 148 154
168 179 32 8 43 41 359 348 21 0 128 78 86 52 39 24 355 267 247 302 356 312 230 106 138 134 116 80 61 61 52 54 43 40 39 38 37 39 45 58 59 55 46 43 41 41 39 37 28 1 11 44 48 47 53 59 65 85 127 134 139 122 140 156 166 165 145 141 149 155 148 128 129 144 140 149 148 150 154 149 150 142 136 140 144 154
206 195 52 31 45 23 16 64 73 79 72 76 65 48 43 31 40 85 33 13 319 288 287 194 141 116 93 72 65 64 62 54 54 50 44 41 47 50 53 54 54 50 45 42 39 35 25 34 29 14 19 28 33 40 39 45 70 68 73 107 108 127 66 144 156 148 143 139 132 126 133 134 133 116 97 114 133 137 138 137 129 128 120 121 125 145
246 166 148 125 90 32 8 345 107 103 98 76 57 48 41 47 51 50 47 20 20 43 64 99 81 77 68 79 75 74 71 71 63 60 58 53 46 47 55 57 56 56 54 51 49 47 45 41 42 37 35 37 37 41 42 43 36 43 45 54 103 116 125 128 115 124 129 122 115 127 141 144 138 123 125 123 117 111 111 110 109 109 111 114 123 130
281 141 144 131 121 104 90 274 320 130 109 85 63 48 35 60 71 52 57 33 72 75 77 99 100 86 69 75 88 88 86 87 73 63 64 55 51 51 54 57 55 54 53 52 52 52 52 51 48 47 43 45 45 50 51 51 48 48 42 41 40 35 77 125 125 119 116 119 125 126 130 133 128 127 123 110 100 92 97 97 91 96 95 92 90 85
284 126 171 163 164 146 136 137 149 110 104 91 63 40 31 30 44 27 32 3 350 102 120 130 134 114 112 106 93 94 88 73 67 59 59 55 55 58 57 54 51 48 50 55 57 56 51 50 48 43 38 41 50 52 56 60 61 53 55 45 44 38 57 73 70 84 109 117 123 126 129 124 113 103 105 110 109 106 97 83 67 65 67 74 73 72
306 157 169 193 204 159 158 198 150 203 169 173 37 4 354 14 8 80 63 33 27 348 166 191 99 105 129 127 111 90 85 76 62 54 58 61 58 57 58 56 56 52 49 52 56 57 56 56 53 49 45 46 48 52 51 60 64 61 54 46 29 41 55 55 65 66 61 82 104 114 114 119 115 101 98 95 95 78 66 83 93 85 81 71 70 78
259 217 214 172 233 140 164 154 147 222 211 90 21 345 341 5 356 11 38 15 16 7 41 47 104 123 128 127 114 104 84 69 71 59 55 55 65 64 62 61 59 55 52 51 53 58 61 65 64 62 60 59 61 65 68 57 64 56 44 55 44 42 57 62 57 58 57 54 64 77 94 96 98 99 101 94 84 87 92 82 72 71 78 94 89 87
243 206 210 195 210 138 157 171 182 213 85 157 61 27 9 356 7 360 45 29 29 41 78 98 109 107 98 99 100 86 78 79 70 64 55 55 62 70 72 66 60 60 58 55 56 59 64 70 72 63 54 58 62 65 61 63 60 63 59 49 60 54 58 56 58 53 50 49 48 61 65 77 83 88 91 86 82 86 92 95 100 91 78 78 77 70
249 202 122 91 66 129 165 196 184 77 115 162 202 34 356 270 1 311 133 47 34 40 73 109 106 114 117 116 113 109 104 93 75 60 56 55 56 65 70 67 64 63 64 57 55 52 41 36 54 60 51 56 65 66 64 63 67 71 70 59 58 58 57 60 62 55 50 45 42 49 61 77 84 80 76 81 86 88 88 88 86 87 83 82 75 74
263 197 209 121 308 191 95 62 76 126 112 55 55 16 19 358 343 355 355 55 19 354 25 130 122 123 125 127 126 123 116 97 73 55 48 56 62 66 71 73 72 69 68 64 58 49 28 34 40 36 42 50 57 62 60 58 61 67 65 60 58 63 65 66 68 67 63 55 48 43 44 52 69 82 87 85 83 80 79 82 88 90 92 90 85 77
285 271 132 214 153 281 142 128 145 187 119 63 38 18 5 332 301 278 249 11 45 11 111 132 132 137 133 134 141 154 180 79 64 53 45 58 67 73 71 73 73 73 71 71 65 50 41 40 40 32 40 53 51 49 48 49 55 60 61 56 52 55 56 59 61 61 62 63 62 58 51 43 45 53 59 76 84 84 82 81 77 69 60 85 89 85
349 266 144 247 141 200 193 154 69 71 69 11 356 348 349 330 250 187 240 73 30 81 127 146 136 146 145 155 167 197 225 122 108 103 84 80 76 74 75 63 58 53 51 46 43 42 41 43 47 43 39 45 52 45 49 56 57 61 63 58 55 55 53 49 49 48 49 51 58 62 60 58 54 53 51 55 62 67 68 65 68 74 78 85 86 73
25 23 192 110 110 54 76 81 82 47 43 356 345 345 345 329 195 206 236 91 30 94 153 151 151 153 165 158 162 309 191 145 147 136 134 112 98 89 81 81 71 61 55 51 45 46 41 37 52 52 46 40 41 47 49 54 61 63 64 63 60 59 55 50 48 48 49 50 51 58 64 66 67 64 63 63 62 61 63 64 67 70 79 78 84 92
2 28 28 76 94 97 91 99 109 103 50 353 345 339 344 321 221 251 23 32 343 324 146 159 154 163 162 174 331 26 28 86 125 131 132 122 111 98 89 81 73 65 63 51 41 31 44 43 50 54 53 48 39 45 43 53 65 63 62 64 63 58 56 52 51 51 51 53 53 52 52 53 57 63 64 66 66 65 59 54 57 63 71 84 84 88
36 13 73 48 44 53 78 91 95 88 30 342 343 341 359 259 265 44 12 320 302 299 146 157 155 155 176 358 71 92 106 108 123 129 128 118 107 105 99 95 90 81 69 61 46 40 46 47 49 51 48 41 41 50 55 58 66 63 60 61 60 56 56 59 58 59 61 61 59 55 51 49 47 49 50 49 60 70 71 64 60 59 60 60 67 72
358 341 63 65 356 152 94 99 119 60 35 3 338 279 14 8 28 327 326 339 4 77 117 145 152 149 76 95 111 117 117 120 124 125 122 117 113 109 107 100 92 93 92 81 68 52 57 69 63 58 55 38 31 31 53 65 69 66 61 61 57 54 53 55 57 57 58 60 62 60 57 52 47 46 41 42 44 52 60 66 69 73 79 93 101 97
336 149 97 80 346 47 66 58 56 27 328 355 8 38 352 354 318 318 297 21 36 61 103 82 59 69 110 122 124 117 119 121 122 121 118 113 113 112 107 97 91 90 88 82 81 80 76 80 81 83 78 75 63 46 37 59 74 74 71 65 55 55 54 55 53 53 53 54 56 58 57 57 57 53 55 48 50 56 57 54 61 64 59 52 68 93
21 58 20 74 36 42 70 79 70 39 12 19 20 23 22 19 13 39 71 49 51 29 43 88 83 92 111 118 116 117 114 114 120 123 121 122 120 118 115 111 100 95 92 89 84 80 76 75 79 79 73 65 69 73 74 67 76 79 77 74 73 71 68 62 58 60 61 57 54 52 55 52 46 42 37 40 37 38 44 48 32 53 51 53 58 51
68 27 72 91 91 92 76 78 87 71 54 43 44 36 37 48 57 80 81 80 58 51 43 84 93 94 90 96 108 107 111 119 123 127 128 128 127 125 122 114 106 98 94 91 86 81 82 81 75 71 68 64 63 65 59 61 67 70 69 67 65 63 63 63 61 59 58 59 54 47 46 48 55 51 41 30 35 34 34 25 34 30 33 34 39 42
78 107 101 93 158 176 72 69 70 69 68 66 66 59 55 52 59 66 73 69 72 71 70 70 80 86 91 96 99 111 120 134 129 130 130 130 125 128 124 117 116 114 106 99 97 93 83 82 79 74 72 69 61 63 66 68 68 69 63 56 54 54 55 53 52 54 51 47 51 48 43 38 24 29 43 33 31 42 36 30 27 37 30 27 25 31
92 7 87 76 88 85 104 92 86 78 71 60 57 62 62 68 74 74 75 80 81 77 75 78 79 79 60 70 92 109 120 128 126 126 127 126 131 131 127 121 118 117 114 116 114 103 99 93 91 87 84 80 73 64 62 62 64 67 71 70 66 62 55 48 42 48 50 47 44 38 37 44 18 7 47 36 32 29 31 35 33 36 34 20 14 2
46 253 96 108 98 99 102 107 102 89 74 69 69 65 68 78 89 95 96 92 89 85 81 74 74 72 63 47 33 53 83 89 102 111 107 109 113 115 115 117 117 117 125 123 118 116 107 108 105 104 96 94 97 96 87 81 75 68 67 72 75 81 81 82 84 74 71 62 50 48 39 40 41 38 34 54 56 51 31 15 7 13 42 42 12 11
127 84 134 127 110 102 104 122 181 102 88 83 75 75 79 82 91 99 102 102 102 100 98 95 86 82 73 51 35 34 46 39 34 66 105 105 105 107 114 119 122 123 121 118 113 107 104 101 103 105 104 99 95 89 87 87 88 86 79 70 71 73 77 76 81 82 78 72 68 61 56 47 57 54 54 52 71 98 93 55 29 10 360 55 64 37
68 18 359 69 90 106 98 97 89 94 98 92 95 93 89 89 92 94 99 106 113 115 119 114 110 99 87 67 26 47 56 45 32 17 52 73 105 118 122 127 129 135 126 126 123 117 110 108 107 101 91 93 97 95 91 84 82 80 72 66 53 44 42 48 56 65 77 65 53 9 14 61 52 51 58 58 54 67 119 130 97 81 51 27 26 29